{"data":{"norad_id":62735,"intl_designator":"2025-014A","name":"STARLINK-32806","alt_names":[],"object_type":"PAYLOAD","status":"ACTIVE","operator":null,"country":"US","launch_date":"2025-01-21","launch_site_code":"AFETR","launch_vehicle":null,"mission":null,"orbit_class":"UNKNOWN","rcs_meters":null,"size_class":null,"mass_kg":null,"dimensions":null,"purposes":["comms"],"wikipedia_slug":null,"has_3d_model":false,"image_url":null,"decayed_at":null,"tle_current":{"epoch":"2026-05-25T04:20:37.330368Z","epoch_age_seconds":66680,"freshness":"FRESH","line1":"1 62735U 25014A   26145.18098762  .00019665  00000+0  72191-3 0  9993","line2":"2 62735  42.9991  82.5905 0001052 268.3393  91.7338 15.27594997 74954","mean_motion":15.27594997,"eccentricity":0.0001052,"inclination_deg":42.9991,"raan_deg":82.5905,"arg_perigee_deg":268.3393,"mean_anomaly_deg":91.7338,"bstar":0.00072191,"rev_number":7495,"period_min":94.265823259959,"perigee_km":482.28239794071,"apogee_km":483.72598204708,"semimajor_km":6861.1411899939,"source":"CELESTRAK","updated_at":"2026-05-25T13:38:19.737791Z"}}}